Location: Monrovia
(34.7865°N, 86.7139°W)
Time: 00:52:53
(UTC+00:00)

Cosmos 2112 Rocket - Pass Details

Date: 14 July 2020
Orbit: 756 x 787 km, 74.1° (Epoch: 12 August)

Event Time Altitude Azimuth Distance (km) Brightness Sun altitude
Exits shadow 02:19:10 - 176° (S) 2,422 6.2 -14.2°
Reaches altitude 10° 02:19:25 10° 175° (S) 2,333 6.1 -14.2°
Maximum altitude 02:24:30 48° 102° (ESE) 1,018 4.3 -15.0°
Drops below altitude 10° 02:29:37 10° 29° (NNE) 2,351 6.7 -15.8°
Sets 02:32:05 0° 24° (NNE) 3,283 7.5 -16.2°
